K5BOU Weather Reports


Display with metric or nautical units.
time (UTC)temp
F
wind
direction
speed
MPH
gust
MPH
rain 1hr
in
rain 24hr
in
rain mn
in
humidity
%
barometer
mb
20260902114821 77 206 0.0 0.0 0.00 0.00 0.00 99 1012.7
20260902114317 77 205 0.0 0.0 0.00 0.00 0.00 99 1012.7
20260902113816 77 206 0.0 0.0 0.00 0.00 0.00 99 1012.7
20260902113312 77 205 0.0 0.0 0.00 0.00 0.00 99 1012.5
20260902112811 77 205 0.0 0.0 0.00 0.00 0.00 99 1012.6
20260902112308 77 206 0.0 0.0 0.00 0.00 0.00 99 1012.6
20260902111803 77 206 0.0 0.0 0.00 0.00 0.00 99 1012.6
20260902111300 77 205 0.0 0.0 0.00 0.00 0.00 99 1012.7
20260902110755 77 205 0.0 0.0 0.00 0.00 0.00 99 1012.6
20260902110251 77 205 0.0 0.0 0.00 0.00 0.00 99 1012.5
20260902105750 77 205 0.0 0.0 0.00 0.00 0.00 99 1012.4
20260902105246 77 205 0.0 0.0 0.00 0.00 0.00 99 1012.5
20260902104741 77 205 0.0 0.0 0.00 0.00 0.00 99 1012.6
20260902104237 77 206 0.0 0.0 0.00 0.00 0.00 99 1012.5
20260902103736 77 206 0.0 0.0 0.00 0.00 0.00 99 1012.4
20260902103231 77 207 0.0 0.0 0.00 0.00 0.00 99 1012.4
20260902102727 78 206 0.0 0.0 0.00 0.00 0.00 99 1012.4
20260902102224 78 206 0.0 0.0 0.00 0.00 0.00 99 1012.6
20260902101719 78 206 0.0 0.0 0.00 0.00 0.00 99 1012.4
20260902101214 77 206 0.0 0.0 0.00 0.00 0.00 99 1012.2
20260902100713 78 206 0.0 0.0 0.00 0.00 0.00 99 1012.2
20260902100208 77 206 0.0 0.0 0.00 0.00 0.00 99 1012.2
20260902095708 78 206 0.0 0.0 0.00 0.00 0.00 99 1012.5
20260902095202 78 206 0.0 0.0 0.00 0.00 0.00 99 1012.5
20260902094657 78 206 0.0 0.0 0.00 0.00 0.00 99 1012.4
20260902094154 78 206 0.0 0.0 0.00 0.00 0.00 99 1012.3
20260902093653 78 206 0.0 0.0 0.00 0.00 0.00 99 1012.3
20260902093148 78 206 0.0 0.0 0.00 0.00 0.00 99 1012.5
20260902092643 78 206 0.0 0.0 0.00 0.00 0.00 99 1012.4
20260902092143 78 206 0.0 0.0 0.00 0.00 0.00 99 1012.3
20260902091637 78 206 0.0 0.0 0.00 0.00 0.00 99 1012.3
20260902091134 78 208 0.0 0.0 0.00 0.00 0.00 99 1012.4
20260902090630 78 206 0.0 0.0 0.00 0.00 0.00 99 1012.2
20260902090129 78 207 0.0 0.0 0.00 0.00 0.00 99 1012.2
20260902085624 78 208 0.0 0.0 0.00 0.00 0.00 99 1012.1
20260902085119 78 207 0.0 0.0 0.00 0.00 0.00 99 1012.4
20260902084615 78 208 0.0 0.0 0.00 0.00 0.00 99 1012.3
20260902084110 78 204 0.0 0.0 0.00 0.00 0.00 99 1012.2
20260902083606 78 204 0.0 0.0 0.00 0.00 0.00 99 1012.2
20260902083105 79 205 0.0 0.0 0.00 0.00 0.00 99 1012.6
20260902082601 79 207 0.0 0.0 0.00 0.00 0.00 99 1012.3
20260902082057 79 207 0.0 0.0 0.00 0.00 0.00 99 1012.5
20260902081554 79 208 0.0 0.0 0.00 0.00 0.00 99 1012.3
20260902081053 79 209 0.0 0.0 0.00 0.00 0.00 99 1012.3
20260902080548 79 210 0.0 0.0 0.00 0.00 0.00 99 1012.4
20260902080045 79 211 0.0 0.0 0.00 0.00 0.00 99 1012.5
20260902075544 79 215 0.0 0.0 0.00 0.00 0.00 99 1012.3
20260902075041 79 214 0.0 0.0 0.00 0.00 0.00 99 1012.4
20260902074536 79 210 0.0 0.0 0.00 0.00 0.00 99 1012.2
20260902074031 79 210 0.0 0.0 0.00 0.00 0.00 99 1012.3
20260902073526 79 204 0.0 0.0 0.00 0.00 0.00 99 1012.2
20260902073023 79 204 0.0 0.0 0.00 0.00 0.00 99 1012.5
20260902072518 79 207 0.0 0.0 0.00 0.00 0.00 99 1012.7
20260902072015 79 207 0.0 0.0 0.00 0.00 0.00 99 1012.7
20260902071514 79 208 1.0 2.0 0.00 0.00 0.00 99 1012.5
20260902071011 79 208 0.0 0.0 0.00 0.00 0.00 99 1012.5
20260902070506 79 212 1.0 3.0 0.00 0.00 0.00 99 1012.6
20260902070007 79 203 1.0 3.0 0.00 0.00 0.00 99 1012.5
20260902065500 79 212 3.0 3.0 0.00 0.00 0.00 99 1012.5
20260902064955 79 222 2.0 3.0 0.00 0.00 0.00 99 1012.5
20260902064450 79 211 0.0 0.0 0.00 0.00 0.00 99 1012.4
20260902063946 79 209 0.0 0.0 0.00 0.00 0.00 99 1012.5
20260902063445 79 208 0.0 0.0 0.00 0.00 0.00 99 1012.2
20260902062941 79 208 0.0 0.0 0.00 0.00 0.00 99 1012.5
20260902062440 79 209 0.0 0.0 0.00 0.00 0.00 99 1012.4
20260902061935 79 209 0.0 0.0 0.00 0.00 0.00 99 1012.5
20260902061430 78 209 0.0 0.0 0.00 0.00 0.00 99 1012.5
20260902060926 78 209 0.0 0.0 0.00 0.00 0.00 99 1012.4
20260902060422 78 210 0.0 0.0 0.00 0.00 0.00 99 1012.3
20260902055918 78 210 0.0 0.0 0.00 0.00 0.00 99 1012.3
20260902055414 78 209 0.0 0.0 0.00 0.00 0.00 99 1012.4
20260902054909 78 203 0.0 1.0 0.00 0.00 0.00 99 1012.4
20260902054404 78 202 0.0 0.0 0.00 0.00 0.00 99 1012.6
20260902053859 78 202 0.0 0.0 0.00 0.00 0.00 99 1012.7
20260902053354 78 202 0.0 0.0 0.00 0.00 0.00 99 1012.6
20260902052853 78 202 0.0 0.0 0.00 0.00 0.00 99 1012.3
20260902052349 78 201 0.0 0.0 0.00 0.00 0.00 99 1012.5
20260902051844 78 202 0.0 0.0 0.00 0.00 0.00 99 1012.5
20260902051343 78 202 0.0 1.0 0.00 0.00 0.00 99 1012.6
20260902050838 78 201 0.0 0.0 0.00 0.00 0.00 99 1012.6
20260902050337 78 201 0.0 0.0 0.00 0.00 0.00 99 1012.5
20260902045832 78 201 0.0 0.0 0.00 0.00 0.00 99 1012.6
20260902045328 78 201 0.0 0.0 0.00 0.00 0.00 99 1012.5
20260902044824 78 201 0.0 0.0 0.00 0.00 0.00 99 1012.5
20260902044320 78 201 0.0 0.0 0.00 0.00 0.00 99 1012.4
20260902043819 79 202 0.0 0.0 0.00 0.00 0.00 99 1012.4
20260902043315 79 201 0.0 0.0 0.00 0.00 0.00 99 1012.4
20260902042814 79 201 0.0 0.0 0.00 0.00 0.00 99 1012.4
20260902042309 79 202 0.0 0.0 0.00 0.00 0.00 99 1012.4
20260902041805 79 202 0.0 0.0 0.00 0.00 0.00 98 1012.4
20260902041304 79 202 0.0 0.0 0.00 0.00 0.00 98 1012.7
20260902040803 79 202 0.0 0.0 0.00 0.00 0.00 97 1012.6
20260902040259 79 201 0.0 0.0 0.00 0.00 0.00 97 1012.6
20260902035757 79 202 0.0 0.0 0.00 0.00 0.00 97 1012.8
20260902035254 79 202 0.0 0.0 0.00 0.00 0.00 97 1012.6
20260902034752 79 202 0.0 0.0 0.00 0.00 0.00 97 1012.7
20260902034247 79 202 0.0 0.0 0.00 0.00 0.00 96 1012.5
20260902033745 80 202 0.0 0.0 0.00 0.00 0.00 97 1012.5
20260902033241 80 202 0.0 0.0 0.00 0.00 0.00 97 1012.7
20260902032739 79 202 0.0 0.0 0.00 0.00 0.00 97 1012.6
20260902032235 79 202 0.0 0.0 0.00 0.00 0.00 97 1012.4
20260902031734 79 202 0.0 0.0 0.00 0.00 0.00 97 1012.4
20260902031230 79 202 0.0 0.0 0.00 0.00 0.00 96 1012.5
20260902030726 79 202 0.0 0.0 0.00 0.00 0.00 96 1012.2
20260902030226 79 202 0.0 0.0 0.00 0.00 0.00 96 1012.3
20260902025725 79 202 0.0 0.0 0.00 0.00 0.00 96 1012.0
20260902025220 79 202 0.0 0.0 0.00 0.00 0.00 96 1011.9
20260902024715 79 202 0.0 0.0 0.00 0.00 0.00 96 1012.1
20260902024210 80 202 0.0 1.0 0.00 0.00 0.00 95 1011.8
20260902023706 79 201 0.0 1.0 0.00 0.00 0.00 95 1011.9
20260902023201 79 201 0.0 1.0 0.00 0.00 0.00 95 1011.9
20260902022700 80 200 0.0 1.0 0.00 0.00 0.00 95 1011.8
20260902022156 80 199 0.0 0.0 0.00 0.00 0.00 94 1011.8
20260902021652 80 199 0.0 0.0 0.00 0.00 0.00 94 1011.6
20260902021146 80 199 0.0 0.0 0.00 0.00 0.00 94 1011.5
20260902020642 80 199 0.0 0.0 0.00 0.00 0.00 93 1011.3
20260902020138 80 199 0.0 0.0 0.00 0.00 0.00 92 1011.4
20260902015633 81 199 0.0 0.0 0.00 0.00 0.00 92 1011.4
20260902015130 81 198 0.0 0.0 0.00 0.00 0.00 92 1011.1
20260902014625 81 198 0.0 0.0 0.00 0.00 0.00 92 1011.1
20260902014120 81 199 0.0 0.0 0.00 0.00 0.00 91 1011.2
20260902013620 81 199 0.0 0.0 0.00 0.00 0.00 91 1010.9
20260902013115 82 198 0.0 0.0 0.00 0.00 0.00 90 1010.7
20260902012611 82 198 0.0 0.0 0.00 0.00 0.00 89 1011.0
20260902012106 82 198 0.0 0.0 0.00 0.00 0.00 89 1010.9
20260902011602 82 201 1.0 1.0 0.00 0.00 0.00 88 1010.8
20260902011101 83 194 0.0 0.0 0.00 0.00 0.00 86 1011.0
20260902010600 84 193 0.0 0.0 0.00 0.00 0.00 85 1010.8
20260902010056 85 186 0.0 0.0 0.00 0.00 0.00 82 1011.0
20260902005554 85 171 0.0 0.0 0.00 0.00 0.00 80 1011.0
20260902005051 85 164 0.0 1.0 0.00 0.00 0.00 80 1011.0
20260902004549 85 119 0.0 0.0 0.00 0.00 0.00 80 1011.2
20260902004045 85 161 0.0 1.0 0.00 0.00 0.00 81 1011.2
20260902003540 85 66 1.0 2.0 0.00 0.00 0.00 81 1011.2
20260902003036 85 165 0.0 0.0 0.00 0.00 0.00 81 1011.0
20260902002532 85 154 0.0 1.0 0.00 0.00 0.00 81 1011.1
20260902002026 86 128 0.0 2.0 0.00 0.00 0.00 81 1011.2
20260902001521 86 111 1.0 5.0 0.00 0.00 0.00 80 1011.2
20260902001016 86 158 0.0 2.0 0.00 0.00 0.00 81 1011.0
20260902000511 86 93 2.0 2.0 0.00 0.00 0.00 80 1011.1
20260902000006 86 105 1.0 3.0 0.00 0.00 0.00 79 1011.0
20260901235501 87 22 3.0 5.0 0.00 0.00 0.00 79 1010.9
20260901234956 88 152 2.0 3.0 0.00 0.00 0.00 78 1011.0
20260901234455 89 110 1.0 5.0 0.00 0.00 0.00 72 1010.9
20260901233950 89 182 0.0 1.0 0.00 0.00 0.00 70 1010.8
20260901233445 89 180 0.0 0.0 0.00 0.00 0.00 70 1010.6
20260901232941 89 160 0.0 2.0 0.00 0.00 0.00 69 1010.8
20260901232436 89 176 0.0 1.0 0.00 0.00 0.00 69 1011.0
20260901231931 90 175 1.0 2.0 0.00 0.00 0.00 67 1010.8
20260901231428 90 180 0.0 1.0 0.00 0.00 0.00 67 1010.8
20260901230924 90 181 0.0 0.0 0.00 0.00 0.00 66 1011.2
20260901230423 90 134 1.0 1.0 0.00 0.00 0.00 66 1010.9
20260901225919 90 40 2.0 3.0 0.00 0.00 0.00 65 1011.0
20260901225419 90 152 0.0 2.0 0.00 0.00 0.00 65 1010.8
20260901224913 90 83 1.0 3.0 0.00 0.00 0.00 64 1011.0
20260901224410 90 146 0.0 2.0 0.00 0.00 0.00 63 1011.0
20260901223906 90 127 1.0 2.0 0.00 0.00 0.00 63 1011.1
20260901223401 90 169 0.0 0.0 0.00 0.00 0.00 62 1010.9
20260901222856 90 152 0.0 3.0 0.00 0.00 0.00 63 1011.0
20260901222353 90 182 0.0 1.0 0.00 0.00 0.00 65 1011.0
20260901221848 90 173 0.0 1.0 0.00 0.00 0.00 65 1010.9
20260901221344 90 175 0.0 0.0 0.00 0.00 0.00 66 1011.2
20260901220844 90 130 0.0 2.0 0.00 0.00 0.00 65 1011.0
20260901220342 90 166 0.0 2.0 0.00 0.00 0.00 65 1011.1
20260901215842 90 123 2.0 5.0 0.00 0.00 0.00 64 1011.0
20260901215341 90 171 0.0 2.0 0.00 0.00 0.00 66 1011.2
20260901214839 90 143 0.0 2.0 0.00 0.00 0.00 65 1011.5
20260901214339 91 137 1.0 5.0 0.00 0.00 0.00 64 1011.4
20260901213839 91 90 2.0 5.0 0.00 0.00 0.00 65 1011.5
20260901213333 91 161 0.0 3.0 0.00 0.00 0.00 65 1011.7
20260901212828 91 171 0.0 1.0 0.00 0.00 0.00 66 1011.7
20260901212324 91 153 1.0 5.0 0.00 0.00 0.00 66 1011.4
20260901211819 92 73 1.0 2.0 0.00 0.00 0.00 65 1011.4
20260901211315 92 154 0.0 2.0 0.00 0.00 0.00 64 1011.2
20260901210810 92 102 0.0 5.0 0.00 0.00 0.00 65 1011.3
20260901210307 93 161 1.0 2.0 0.00 0.00 0.00 64 1011.2
20260901205802 93 187 0.0 6.0 0.00 0.00 0.00 65 1011.4
20260901205306 93 171 0.0 5.0 0.00 0.00 0.00 65 1011.2
20260901204757 93 126 1.0 3.0 0.00 0.00 0.00 65 1011.3
20260901204254 94 104 2.0 6.0 0.00 0.00 0.00 64 1011.3
20260901203754 94 130 0.0 3.0 0.00 0.00 0.00 64 1011.5
20260901203254 93 146 1.0 2.0 0.00 0.00 0.00 64 1011.5
20260901202748 94 114 1.0 5.0 0.00 0.00 0.00 64 1011.5
20260901202243 93 156 1.0 2.0 0.00 0.00 0.00 65 1011.7
20260901201739 94 189 0.0 1.0 0.00 0.00 0.00 64 1011.7
20260901201238 94 162 0.0 6.0 0.00 0.00 0.00 65 1011.6
20260901200738 94 96 2.0 2.0 0.00 0.00 0.00 64 1011.8
20260901200234 94 154 1.0 3.0 0.00 0.00 0.00 64 1012.1
20260901195732 95 198 1.0 1.0 0.00 0.00 0.00 63 1012.1
20260901195226 95 127 1.0 5.0 0.00 0.00 0.00 63 1012.2
20260901194722 94 212 2.0 2.0 0.00 0.00 0.00 63 1012.1
20260901194216 95 322 4.0 6.0 0.00 0.00 0.00 63 1012.2
20260901193713 94 160 1.0 2.0 0.00 0.00 0.00 64 1012.1
20260901193206 95 172 1.0 2.0 0.00 0.00 0.00 65 1012.3
20260901192706 95 208 0.0 1.0 0.00 0.00 0.00 64 1012.3
20260901192201 95 178 1.0 3.0 0.00 0.00 0.00 67 1012.3
20260901191657 95 73 1.0 3.0 0.00 0.00 0.00 64 1012.4
20260901191154 95 217 1.0 7.0 0.00 0.00 0.00 66 1012.3
20260901190649 94 164 0.0 2.0 0.00 0.00 0.00 65 1012.3
20260901190148 94 144 0.0 3.0 0.00 0.00 0.00 65 1012.6
20260901185647 92 182 1.0 5.0 0.00 0.00 0.00 67 1012.7
20260901185145 93 139 0.0 2.0 0.00 0.00 0.00 67 1012.6
20260901184641 92 163 0.0 1.0 0.00 0.00 0.00 66 1012.6
20260901184131 92 135 0.0 5.0 0.00 0.00 0.00 67 1012.7
20260901183626 93 331 4.0 6.0 0.00 0.00 0.00 65 1012.9
20260901183121 93 197 1.0 1.0 0.00 0.00 0.00 66 1012.8
20260901182617 92 168 0.0 2.0 0.00 0.00 0.00 67 1013.2
20260901182116 94 7 0.0 3.0 0.00 0.00 0.00 66 1013.0
20260901181611 93 100 0.0 1.0 0.00 0.00 0.00 68 1013.0
20260901181110 91 305 3.0 3.0 0.00 0.00 0.00 69 1013.0
20260901180604 91 308 4.0 6.0 0.00 0.00 0.00 70 1013.2
20260901180058 92 116 0.0 1.0 0.00 0.00 0.00 72 1013.1
20260901175552 91 54 1.0 2.0 0.00 0.00 0.00 72 1013.5
20260901175052 91 159 0.0 3.0 0.00 0.00 0.00 73 1013.3
20260901174548 91 323 4.0 6.0 0.00 0.00 0.00 73 1013.5
20260901174044 90 154 0.0 6.0 0.00 0.00 0.00 75 1013.7
20260901173538 91 50 1.0 3.0 0.00 0.00 0.00 74 1014.0
20260901173034 90 165 0.0 5.0 0.00 0.00 0.00 76 1014.0
20260901172529 89 157 0.0 2.0 0.00 0.00 0.00 78 1014.1
20260901172027 88 205 1.0 3.0 0.00 0.00 0.00 82 1014.2
20260901171527 87 187 0.0 1.0 0.00 0.00 0.00 83 1014.3
20260901171026 87 145 0.0 6.0 0.00 0.00 0.00 83 1014.2
20260901170525 87 259 1.0 1.0 0.00 0.00 0.00 83 1014.3
20260901170020 87 99 0.0 1.0 0.00 0.00 0.00 83 1014.3
20260901165515 87 278 3.0 5.0 0.00 0.00 0.00 84 1014.4
20260901165010 87 205 1.0 5.0 0.00 0.00 0.00 84 1014.5
20260901164506 86 249 1.0 3.0 0.00 0.00 0.00 84 1014.6
20260901164000 87 292 4.0 5.0 0.00 0.00 0.00 82 1014.6
20260901163456 87 235 3.0 5.0 0.00 0.00 0.00 83 1014.6
20260901162954 87 195 0.0 1.0 0.00 0.00 0.00 83 1014.4
20260901162451 87 195 0.0 2.0 0.00 0.00 0.00 83 1014.4
20260901161949 87 308 2.0 3.0 0.00 0.00 0.00 84 1014.4
20260901161448 87 181 0.0 3.0 0.00 0.00 0.00 85 1014.6
20260901160943 87 223 1.0 5.0 0.00 0.00 0.00 84 1014.8
20260901160440 87 214 0.0 2.0 0.00 0.00 0.00 85 1014.6
20260901155939 87 199 1.0 2.0 0.00 0.00 0.00 84 1014.4
20260901155438 86 6 3.0 5.0 0.00 0.00 0.00 87 1014.7
20260901154935 86 151 0.0 5.0 0.00 0.00 0.00 86 1014.3
20260901154434 86 172 0.0 1.0 0.00 0.00 0.00 86 1014.4
20260901153929 86 230 1.0 2.0 0.00 0.00 0.00 86 1014.6
20260901153424 87 160 1.0 3.0 0.00 0.00 0.00 86 1014.6
20260901152918 87 134 0.0 2.0 0.00 0.00 0.00 85 1014.4
20260901152413 87 131 3.0 7.0 0.00 0.00 0.00 86 1014.5
20260901151913 86 210 2.0 5.0 0.00 0.00 0.00 88 1014.3
20260901151412 85 239 2.0 2.0 0.00 0.00 0.00 89 1014.3
20260901150912 85 112 1.0 3.0 0.00 0.00 0.00 90 1014.5
20260901150410 85 248 3.0 3.0 0.00 0.00 0.00 89 1014.6
20260901145907 84 239 2.0 5.0 0.00 0.00 0.00 89 1014.7
20260901145407 84 201 0.0 5.0 0.00 0.00 0.00 90 1014.6
20260901144902 84 229 2.0 5.0 0.00 0.00 0.00 90 1014.5
20260901144358 83 196 0.0 5.0 0.00 0.00 0.00 92 1014.7
20260901143853 83 199 0.0 1.0 0.00 0.00 0.00 93 1014.7
20260901143349 82 253 0.0 2.0 0.00 0.00 0.00 94 1014.9
20260901142846 82 234 1.0 2.0 0.00 0.00 0.00 95 1014.5
20260901142344 82 214 0.0 1.0 0.00 0.00 0.00 96 1014.6
20260901141839 81 215 0.0 1.0 0.00 0.00 0.00 98 1014.6
20260901141335 81 212 0.0 0.0 0.00 0.00 0.00 99 1014.7
20260901140833 81 224 0.0 1.0 0.00 0.00 0.00 99 1014.9
20260901140332 81 193 0.0 0.0 0.00 0.00 0.00 99 1015.0
20260901135827 80 198 0.0 1.0 0.00 0.00 0.00 99 1014.9
20260901135322 80 206 0.0 1.0 0.00 0.00 0.00 99 1014.7
20260901134818 80 207 0.0 0.0 0.00 0.00 0.00 99 1014.8
20260901134313 79 206 0.0 0.0 0.00 0.00 0.00 99 1014.8
20260901133807 79 204 0.0 0.0 0.00 0.00 0.00 99 1014.9
20260901133306 79 200 0.0 0.0 0.00 0.00 0.00 99 1014.7
20260901132804 79 199 0.0 0.0 0.00 0.00 0.00 99 1014.8
20260901132300 78 198 0.0 0.0 0.00 0.00 0.00 99 1014.7
20260901131754 78 200 0.0 0.0 0.00 0.00 0.00 99 1014.6
20260901131254 78 200 0.0 0.0 0.00 0.00 0.00 99 1014.7
20260901130749 78 224 0.0 0.0 0.00 0.00 0.00 99 1014.6
20260901130249 78 199 0.0 0.0 0.00 0.00 0.00 99 1014.4
20260901125746 78 200 0.0 0.0 0.00 0.00 0.00 99 1014.5
20260901125241 77 216 0.0 1.0 0.00 0.00 0.00 99 1014.3
20260901124736 77 201 0.0 0.0 0.00 0.00 0.00 99 1014.0
20260901124231 77 202 0.0 0.0 0.00 0.00 0.00 99 1014.1
20260901123730 77 200 0.0 1.0 0.00 0.00 0.00 99 1013.9
20260901123225 77 202 0.0 0.0 0.00 0.00 0.00 99 1013.9
20260901122724 76 200 0.0 0.0 0.00 0.00 0.00 99 1014.1
20260901122219 76 199 0.0 0.0 0.00 0.00 0.00 99 1013.8
20260901121713 76 199 0.0 0.0 0.00 0.00 0.00 99 1013.7
20260901121209 76 200 0.0 0.0 0.00 0.00 0.00 99 1013.9
20260901120708 76 200 0.0 0.0 0.00 0.00 0.00 99 1013.5
20260901120203 77 201 0.0 1.0 0.00 0.00 0.00 99 1013.5
20260901115658 77 201 0.0 0.0 0.00 0.00 0.00 99 1013.6
20260901115154 76 201 0.0 0.0 0.00 0.00 0.00 99 1013.7